Weather History for Prince George, BC

Change the Weather History Date:

Wednesday, July 10, 2013

  Actual Average Record
Temperature  
Mean Temperature 55 °F -  
Max Temperature 66 °F 68 °F 80 °F (2002)
Min Temperature 44 °F 46 °F 43 °F (2014)
Degree Days  
Heating Degree Days 10    
Growing Degree Days 5 (Base 50)    
Moisture  
Dew Point 46 °F    
Average Humidity 69    
Maximum Humidity 94    
Minimum Humidity 38    
Precipitation  
Precipitation 0.20 in - - ()
Sea Level Pressure  
Sea Level Pressure 29.89 in    
Wind  
Wind Speed 5 mph ()    
Max Wind Speed 15 mph    
Max Gust Speed 22 mph    
Visibility 8.5 miles    
Events Rain , Thunderstorm    
Averages and records for this station are not official NWS values.
T = Trace of Precipitation, MM = Missing Value Source: Averaged Metar Reports

Daily Weather History Graph

Daily Weather History Graph

Search for Another Location

Airport:

Trip Planner

Search our weather history database for the weather conditions in past years. The results will help you decide how hot, cold, wet, or windy it might be!

Date:

Astronomy

Jul. 10, 2013 Rise Set
Actual Time 4:52 AM PDT 9:38 PM PDT
Civil Twilight 4:01 AM PDT 10:29 PM PDT
Nautical Twilight 2:36 AM PDT 11:53 PM PDT
Astronomical Twilight Sun does not rise Sun does not rise
Moon 7:50 AM PDT (7/10) 10:14 PM PDT (7/10)
Length of Visible Light 18h 27m
Length of Day
16h 45m
Waxing Crescent, 6% of the Moon is Illuminated
Jul 10
Waxing Crescent
Jul 15
First Quarter
Jul 22
Full
Jul 29
Last Quarter
Aug 6
New

Hourly Weather History & Observations

Time (PDT) Temp. Windchill Dew Point Humidity Pressure Visibility Wind Dir Wind Speed Gust Speed Precip Events Conditions
12:00 AM 51.8 °F - 48.2 °F 88% 30.01 in 9.0 mi West 5.8 mph - N/A   Scattered Clouds
1:00 AM 57.2 °F - 41.0 °F 55% 30.00 in 9.0 mi WNW 6.9 mph - N/A   Scattered Clouds
2:00 AM 56 °F - 40 °F 43% 30.00 in 10 mi WNW 3.5 mph - -  
2:00 AM 55.4 °F - 39.2 °F 54% 29.99 in 9.0 mi Variable 3.5 mph - N/A   Partly Cloudy
3:00 AM 51.8 °F - 41.0 °F 67% 29.99 in 9.0 mi SSE 3.5 mph - N/A   Mostly Cloudy
4:00 AM 50.0 °F - 42.8 °F 76% 29.99 in 9.0 mi Calm Calm - N/A   Overcast
5:00 AM 47 °F - 42 °F 76% 29.98 in 10 mi SW 3.5 mph - -  
5:00 AM 48.2 °F - 42.8 °F 82% 29.98 in 9.0 mi SW 3.5 mph - N/A   Scattered Clouds
6:00 AM 46.4 °F 45.2 °F 42.8 °F 87% 29.97 in 9.0 mi South 3.5 mph - N/A   Overcast
7:00 AM 51.8 °F - 44.6 °F 76% 29.96 in 9.0 mi SW 3.5 mph - N/A   Scattered Clouds
8:00 AM 53 °F - 46 °F 70% 29.95 in 10 mi South 3.5 mph - -  
8:00 AM 53.6 °F - 46.4 °F 77% 29.95 in 9.0 mi Variable 2.3 mph - N/A   Mostly Cloudy
9:00 AM 53.6 °F - 46.4 °F 77% 29.94 in 9.0 mi SSE 5.8 mph - N/A   Mostly Cloudy
10:00 AM 55.4 °F - 42.8 °F 63% 29.95 in 9.0 mi Variable 2.3 mph - N/A   Mostly Cloudy
11:00 AM 57 °F - 43 °F 49% 29.96 in 10 mi WSW 3.5 mph - -  
11:00 AM 57.2 °F - 42.8 °F 59% 29.96 in 9.0 mi SW 4.6 mph - N/A   Mostly Cloudy
12:00 PM 59.0 °F - 42.8 °F 55% 29.95 in 9.0 mi Calm Calm - N/A   Clear
1:00 PM 64.4 °F - 42.8 °F 45% 29.92 in 9.0 mi Variable 2.3 mph - N/A   Mostly Cloudy
2:00 PM 61 °F - 42 °F 38% 29.91 in 10 mi West 4.6 mph - -  
2:00 PM 60.8 °F - 41.0 °F 48% 29.91 in 9.0 mi WSW 5.8 mph - N/A   Mostly Cloudy
3:00 PM 62.6 °F - 41.0 °F 45% 29.90 in 9.0 mi Variable 2.3 mph - N/A   Mostly Cloudy
3:30 PM 62.6 °F - 44.6 °F 52% 29.89 in 9.0 mi West 8.1 mph - N/A Rain Light Rain
3:41 PM 62.6 °F - 42.8 °F 48% 29.89 in 9.0 mi SSW 5.8 mph - N/A   Mostly Cloudy
4:00 PM 64.4 °F - 42.8 °F 45% 29.89 in 9.0 mi North 8.1 mph - N/A   Mostly Cloudy
4:49 PM 62.6 °F - 42.8 °F 48% 29.88 in 9.0 mi North 3.5 mph - N/A Rain Light Rain
5:00 PM 60 °F - 49 °F 59% 29.88 in 10 mi NW 9.2 mph - - Rain Light Rain
5:00 PM 60.8 °F - 50.0 °F 68% 29.88 in 9.0 mi NW 10.4 mph - N/A Rain Light Rain
5:20 PM 62.6 °F - 48.2 °F 59% 29.87 in 9.0 mi North 8.1 mph - N/A   Scattered Clouds
6:00 PM 62.6 °F - 44.6 °F 52% 29.85 in 9.0 mi NNW 5.8 mph - N/A   Partly Cloudy
7:00 PM 62.6 °F - 46.4 °F 55% 29.83 in 9.0 mi North 6.9 mph - N/A   Mostly Cloudy
7:10 PM 62.6 °F - 46.4 °F 55% 29.83 in 9.0 mi NNE 5.8 mph - N/A Thunderstorm Thunderstorm
7:34 PM 62.6 °F - 46.4 °F 55% 29.82 in 9.0 mi ENE 5.8 mph - N/A Thunderstorm Mostly Cloudy
7:52 PM 59.0 °F - 46.4 °F 63% 29.82 in 9.0 mi ESE 9.2 mph - N/A   Mostly Cloudy
8:00 PM 59 °F - 46 °F 51% 29.82 in 10 mi ESE 8.1 mph - -  
8:00 PM 59.0 °F - 46.4 °F 63% 29.82 in 9.0 mi ESE 8.1 mph - N/A   Mostly Cloudy
8:28 PM 57.2 °F - 46.4 °F 67% 29.82 in 9.0 mi SSE 3.5 mph - N/A Rain Light Rain
8:33 PM 55.4 °F - 46.4 °F 72% 29.82 in 5.0 mi Variable 2.3 mph - N/A Rain , Thunderstorm Light Rain
8:43 PM - - - N/A% - 5.0 mi North - - N/A Rain , Thunderstorm Light Thunderstorms and Rain
8:44 PM - - - N/A% - 6.0 mi North - - N/A Rain , Thunderstorm Light Thunderstorms and Rain
8:57 PM 53.6 °F - 48.2 °F 82% 29.85 in 5.0 mi North - - N/A Rain , Thunderstorm Thunderstorms and Rain
8:59 PM 53.6 °F - 48.2 °F 82% 29.85 in 5.0 mi SSW 15.0 mph 21.9 mph N/A Rain , Thunderstorm Heavy Thunderstorms and Rain
9:00 PM 53.6 °F - 48.2 °F 82% 29.86 in 5.0 mi SSW 12.7 mph 21.9 mph N/A Rain , Thunderstorm Heavy Thunderstorms and Rain
9:02 PM 51.8 °F - 50.0 °F 94% 29.86 in 5.0 mi SSW 10.4 mph 21.9 mph N/A Rain , Thunderstorm Thunderstorms and Rain
9:08 PM 51.8 °F - 50.0 °F 94% 29.85 in 6.0 mi South 11.5 mph 18.4 mph N/A Rain , Thunderstorm Thunderstorms and Rain
9:10 PM 51.8 °F - 50.0 °F 94% 29.85 in 6.0 mi South 10.4 mph - N/A Rain Rain
9:26 PM 51.8 °F - 48.2 °F 88% 29.84 in 9.0 mi SE 5.8 mph - N/A   Overcast
9:33 PM 51.8 °F - 48.2 °F 88% 29.84 in 9.0 mi SSE 3.5 mph - N/A Rain Light Rain
9:48 PM 51.8 °F - 48.2 °F 88% 29.84 in 9.0 mi South 5.8 mph - N/A   Overcast
9:50 PM 51.8 °F - 48.2 °F 88% 29.84 in 9.0 mi SSW 6.9 mph - N/A Rain Light Rain
10:00 PM 51.8 °F - 50.0 °F 94% 29.84 in 9.0 mi South 6.9 mph - N/A Rain Light Rain
10:07 PM 50.0 °F - 48.2 °F 94% 29.84 in 9.0 mi South 6.9 mph - N/A   Overcast
11:00 PM 51 °F - 49 °F 92% 29.85 in 10 mi South 9.2 mph - -   Clear
11:00 PM 51.8 °F - 50.0 °F 94% 29.85 in 9.0 mi South 8.1 mph - N/A   Overcast